Matuku, Fiji
Current Conditions -  °F | °C
As of 12:00 AM on Wednesday 22 Oct 2014 (Local Time) from NFNA Reporting Station
Broken Clouds Broken Clouds  
Wind Chill: 75°   Ceiling: 4500
Heat Index: 75°   Visibility: 6mi
Dew Point: 72°   Wind: 0mph
Humidity: 89%   Direction: NA
Pressure: 29.91"   Gusts: NA
Location:  19.16°S, 179.76°E
Report Text: NFNA 211200Z 00000KT 9999 SCT020 BKN045 24/22 Q1013
Loading
Personal Weather Stations






























Interactive Weather Map
Tropical Storm Tracking
New forecast layout! Learn more

10-Day Weather Forecast

Advertisements
Track Severe Weather on mobile